FlightSource - Aviation Photo Database

World Wide Airport Lookup


Search by ICAO
Or
Search by City

FlightSource.ca - Aviation Photo Database - Ulyanovsk East Airport Information
Airport Identification
Name: Ulyanovsk East Airport
ICAO: UWLW
IATA: ULY
Airport Location
City: Ulyanovsk
Region: ULY
Country: Russia
Continent: Europe
Latitude: 54.401
Longitude: 48.8027
Airport Information
Type: Medium Airport
Elevation: 252 Feet ASL
Flight Status: UWLW
More Info: UWLW
Airport Weather    
Metar: UWLW 210400Z 14004MPS 8000 NSC 00/M02 Q1012 R20/320147 NOSIG RMK QFE754
TAF:


Advertisement